User: anonymous   Login
Location: Clatteringshaws Loch
(55.0508°N, 4.2860°W)
Time: 12:23:02
(UTC+01:00)
Language:

Cosmos 2221 Rocket - Orbit

View from above orbital plane
View from above orbital plane
View from above satellite
View from above satellite

Ground track
Ground track

The orbit data is extracted from the following two-line orbital elements,

1 22237U 92080B   15186.18553992  .00000200  00000-0  24428-4 0  9994
2 22237 082.5120 060.9183 0020340 021.0796 099.0388 14.78154938218106
Epoch (UTC): 05 July 2015 04:27:10
Eccentricity: 0.0020340
inclination: 82.5120°
perigee height: 621 km
apogee height: 649 km
right ascension of ascending node: 60.9183°
argument of perigee: 21.0796°
revolutions per day: 14.78154938
mean anomaly at epoch: 99.0388°
orbit number at epoch: 21810

The dashed part of the orbit path shows where the satellite is in the earth's shadow,  

DLR